Location: Calvera
(42.3882°N, 0.6137°E)
Time: 14:36:54
(UTC+00:00)

Meteor 2-10 Rocket - Pass Details

Date: 28 October 2020
Orbit: 733 x 885 km, 81.2° (Epoch: 24 November)

Event Time Altitude Azimuth Distance (km) Brightness Sun altitude
Rises 05:08:11 0° 353° (N) 3,172 6.6 -15.0°
Reaches altitude 10° 05:10:33 10° 358° (N) 2,247 5.9 -14.5°
Maximum altitude 05:15:29 58° 77° (ENE) 869 4.1 -13.6°
Drops below altitude 10° 05:20:30 10° 157° (SSE) 2,277 6.4 -12.7°
Sets 05:22:54 0° 161° (SSE) 3,217 7.1 -12.3°
